Regional Weather Roundup
Issued by NWS Midland/Odessa, TX

Skip options and go directly to product.
Home | Oldest Version | Next Version | Current Version | All | Text Only | Save Text | Print | Product List | Glossary On

Skip product version selection by date and time.   
804
ASUS44 KMAF 220810
RWRMAF
MIDLAND AREA WEATHER ROUNDUP
NATIONAL WEATHER SERVICE MIDLAND TX
300 AM CDT FRI AUG 22 2014

...IN SOUTHWEST TEXAS AND SOUTHEAST NEW MEXICO...

CITY           SKY/WX    TMP DP  RH WIND       PRES   REMARKS
ALPINE         PTCLDY    71  61  69 SW7       30.18F
ANDREWS        FAIR      75  65  71 S5        30.04F
ARTESIA        PTCLDY    77  59  53 SE13      30.02S
BIG SPRING     CLEAR     82  62  50 S13       30.03S
CARLSBAD       PTCLDY    78  60  53 S10       30.00F
DRYDEN           N/A     78  63  59 E7        30.00S
FORT STOCKTON  PTCLDY    77  64  64 SE12      30.02F
GUAD PASS      MOCLDY    70  59  68 SW17      30.20S
HOBBS          CLEAR     75  63  64 S16       30.06F
MARFA          PTCLDY    64  59  82 NW6       30.18F
MIDLAND AIRPK  CLEAR     81  64  57 S9        30.03S
MIDLAND INTL   CLEAR     78  66  66 S8        30.02S
ODESSA         CLEAR     77  65  66 CALM      30.04R
PECOS          PTCLDY    74  65  73 SE3       30.00R
PRESIDIO       FAIR      75  68  80 NW8       30.01S
SEMINOLE       CLEAR     76  62  63 S5        30.06F
SNYDER         CLEAR     78  64  63 SE7       30.02S
WINK           PTCLDY    78  65  63 SE9       29.99F
$$
...OTHER STATIONS IN TEXAS...

CITY           SKY/WX    TMP DP  RH WIND       PRES   REMARKS
ABILENE        CLEAR     82  64  54 S12       30.01R
AMARILLO       CLEAR     77  60  55 S13       30.01F
AUSTIN         MOCLDY    81  74  79 S16G23    30.03S
BROWNSVILLE    CLEAR     80  78  94 S7        30.04F
CORPUS CHRISTI MOCLDY    82  79  90 S16       30.03F
DALLAS FTW     CLEAR     84  70  62 S15       29.98R
DEL RIO        CLEAR     86  62  44 SE12      29.98R
EL PASO        RAIN      68  65  90 S13G22    30.12R FOG
HOUSTON INT    PTCLDY    81  76  84 S3        30.05S
LUBBOCK        PTCLDY    77  61  57 S12       30.04S
SAN ANGELO     CLEAR     80  62  54 S12       30.00F
SAN ANTONIO    MOCLDY    81  75  82 S17G25    30.06R
WACO           PTCLDY    81  73  76 S17       30.01S
WICHITA FALLS  NOT AVBL
$$
...OTHER LOCATIONS IN NEW MEXICO...

CITY           SKY/WX    TMP DP  RH WIND       PRES   REMARKS
ALAMAGORDO     MOCLDY    77  54  44 S7        30.07S
ALBUQUERQUE    MOCLDY    71  47  42 S6        30.13S
CANNON AFB     PTCLDY    74  60  61 S9        30.07R
CLOVIS           N/A     73  57  56 S14       30.10R
HOLLOMAN AFB   MOCLDY    79  55  42 SE9       30.05S
ROSWELL        MOCLDY    78  59  51 SE10      30.02F
RUIDOSO        MOCLDY    66  50  55 SW10      30.25S
SANTA FE       PTCLDY    65  37  35 SE3       30.17F
TRUTH OR CONSE CLOUDY    75  51  43 S5        30.11R
TUCUMCARI      CLEAR     79  55  43 S13       30.00F
$$

USA.gov is the U.S. government's official web portal to all federal, state and local government web resources and services.